New Haven, CT

12:45 PM EST on November 18, 2017 (GMT -0500)
Tweed-New Haven

Weather History for KHVN - May, 2013

Change the Weather History Date:

Tuesday, May 14, 2013

  Actual Average Record
Temperature  
Mean Temperature 52 °F -  
Max Temperature 61 °F 64 °F 85 °F (1985)
Min Temperature 42 °F 47 °F 37 °F (2007)
Degree Days  
Heating Degree Days 14    
Growing Degree Days 2 (Base 50)    
Moisture  
Dew Point 32 °F    
Average Humidity 50    
Maximum Humidity 76    
Minimum Humidity 25    
Precipitation  
Precipitation 0.00 in - - ()
Sea Level Pressure  
Sea Level Pressure 30.06 in    
Wind  
Wind Speed 6 mph (WNW)    
Max Wind Speed 12 mph    
Max Gust Speed 20 mph    
Visibility 10 miles    
Events      
Averages and records for this station are not official NWS values.
T = Trace of Precipitation, MM = Missing Value Source: NWS Daily Summary

Daily Weather History Graph

Daily Weather History Graph

Search for Another Location

Airport or City:

Trip Planner

Search our weather history database for the weather conditions in past years. The results will help you decide how hot, cold, wet, or windy it might be!

Date:

Astronomy

May. 14, 2013 Rise Set
Actual Time 5:33 AM EDT 8:02 PM EDT
Civil Twilight 5:02 AM EDT 8:34 PM EDT
Nautical Twilight 4:23 AM EDT 9:13 PM EDT
Astronomical Twilight 3:40 AM EDT 9:56 PM EDT
Moon 9:11 AM EDT (5/14) 11:47 PM EDT (5/14)
Length of Visible Light 15h 31m
Length of Day
14h 28m
Waxing Crescent, 19% of the Moon is Illuminated
May 14
Waxing Crescent
May 18
First Quarter
May 25
Full
May 31
Last Quarter
Jun 8
New

Hourly Weather History & Observations

Time (EDT) Temp. Windchill Dew Point Humidity Pressure Visibility Wind Dir Wind Speed Gust Speed Precip Events Conditions
12:53 AM 45.0 °F 41.8 °F 30.9 °F 58% 30.07 in 10.0 mi NNW 5.8 mph - N/A   Clear
1:53 AM 44.1 °F 42.5 °F 30.0 °F 58% 30.07 in 10.0 mi North 3.5 mph - N/A   Clear
2:53 AM 44.1 °F 40.1 °F 28.9 °F 55% 30.07 in 10.0 mi NNW 6.9 mph - N/A   Clear
3:53 AM 44.1 °F 41.5 °F 28.9 °F 55% 30.07 in 10.0 mi NNW 4.6 mph - N/A   Clear
4:53 AM 42.1 °F 40.2 °F 30.0 °F 62% 30.07 in 10.0 mi NNW 3.5 mph - N/A   Clear
5:53 AM 43.0 °F 38.2 °F 30.0 °F 60% 30.08 in 10.0 mi NNW 8.1 mph - N/A   Partly Cloudy
6:53 AM 46.0 °F 41.9 °F 30.9 °F 56% 30.09 in 10.0 mi NNW 8.1 mph - N/A   Partly Cloudy
7:53 AM 48.9 °F - 30.0 °F 48% 30.09 in 10.0 mi NNW 10.4 mph 19.6 mph N/A   Clear
8:53 AM 52.0 °F - 28.9 °F 41% 30.08 in 10.0 mi North 11.5 mph 18.4 mph N/A   Clear
9:53 AM 55.0 °F - 30.0 °F 38% 30.07 in 10.0 mi NW 8.1 mph - N/A   Clear
10:53 AM 55.9 °F - 28.0 °F 34% 30.07 in 10.0 mi Variable 5.8 mph - N/A   Mostly Cloudy
11:53 AM 55.9 °F - 25.0 °F 30% 30.07 in 10.0 mi Variable 4.6 mph - N/A   Mostly Cloudy
12:53 PM 55.0 °F - 35.1 °F 47% 30.07 in 10.0 mi SSW 8.1 mph 17.3 mph N/A   Overcast
1:53 PM 57.0 °F - 34.0 °F 42% 30.06 in 10.0 mi SSW 11.5 mph 18.4 mph N/A   Mostly Cloudy
2:53 PM 55.9 °F - 35.1 °F 45% 30.05 in 10.0 mi SSW 11.5 mph 18.4 mph N/A   Mostly Cloudy
3:53 PM 57.9 °F - 34.0 °F 41% 30.03 in 10.0 mi SSW 8.1 mph - N/A   Mostly Cloudy
4:53 PM 61.0 °F - 25.0 °F 25% 30.02 in 10.0 mi Variable 4.6 mph - N/A   Mostly Cloudy
5:53 PM 57.9 °F - 34.0 °F 41% 30.02 in 10.0 mi SSW 9.2 mph - N/A   Overcast
6:53 PM 57.9 °F - 35.1 °F 42% 30.02 in 10.0 mi SW 8.1 mph - N/A   Clear
7:53 PM 55.0 °F - 35.1 °F 47% 30.02 in 10.0 mi SSW 3.5 mph - N/A   Clear
8:53 PM 48.9 °F - 36.0 °F 61% 30.04 in 10.0 mi Calm Calm - N/A   Clear
9:53 PM 53.1 °F - 41.0 °F 64% 30.06 in 10.0 mi SSW 5.8 mph - N/A   Clear
10:53 PM 53.1 °F - 41.0 °F 64% 30.07 in 10.0 mi Variable 3.5 mph - N/A   Clear
11:53 PM 46.0 °F 44.8 °F 39.0 °F 76% 30.08 in 10.0 mi North 3.5 mph - N/A   Clear